Simultaneous Nadir Overpasses (SNOs) Predictions

Prediction of SNOs between LANDSAT-8 and TERRA Satellite Orbit:

Table of predicted SNOs for the next 14.0 days since TLE Epoch: 11/14/2025
Index Date (LANDSAT-8) Time (LANDSAT-8) Lat,Lon (LANDSAT-8) SZA (LANDSAT-8 ) Date (TERRA) Time (TERRA) Lat,Lon (TERRA) SZA (TERRA ) Distance(km) Time Diff (sec)
1 11/14/2025 23:10:12 -81.83, 73.56 75.15 11/14/2025 23:11:20 -81.83, 73.45 75.13 1.71 68
2 11/14/2025 23:59:39 81.83,-119.02 104.84 11/15/2025 00:00:40 81.83,-118.94 104.88 1.27 61
3 11/15/2025 00:49:06 -81.83, 48.46 75.18 11/15/2025 00:49:58 -81.83, 48.67 75.12 3.28 52
4 11/15/2025 01:38:32 81.83,-143.69 104.86 11/15/2025 01:39:18 81.83,-143.72 104.88 0.82 46
5 11/15/2025 02:27:58 -81.83, 24.22 75.10 11/15/2025 02:28:35 -81.82, 24.30 75.08 1.55 37
6 11/15/2025 03:17:25 81.83,-168.36 104.88 11/15/2025 03:17:56 81.84,-168.51 104.89 2.59 31
7 11/15/2025 04:06:51 -81.83, -0.45 75.08 11/15/2025 04:07:13 -81.82, -0.48 75.07 0.70 22
8 11/15/2025 04:56:18 81.83, 166.97 104.91 11/15/2025 04:56:33 81.83, 167.13 104.94 2.42 15
9 11/15/2025 05:45:44 -81.83, -25.12 75.05 11/15/2025 05:45:51 -81.83, -25.26 75.07 2.35 7
10 11/15/2025 06:35:11 81.83, 142.31 104.93 11/15/2025 06:35:11 81.83, 142.34 104.94 0.69 0
11 11/15/2025 07:24:38 -81.83, -50.21 75.08 11/15/2025 07:24:29 -81.83, -50.05 75.07 2.68 9
12 11/15/2025 08:14:04 81.83, 117.64 104.96 11/15/2025 08:13:49 81.84, 117.56 104.94 1.45 15
13 11/15/2025 09:03:30 -81.83, -74.45 75.01 11/15/2025 09:03:06 -81.82, -74.41 75.02 0.92 24
14 11/15/2025 09:52:56 81.83, 93.40 105.03 11/15/2025 09:52:26 81.83, 93.19 104.99 3.26 30
15 11/15/2025 10:42:23 -81.83, -99.12 74.98 11/15/2025 10:41:44 -81.83, -99.20 75.01 1.22 39
16 11/15/2025 11:31:50 81.83, 68.30 105.00 11/15/2025 11:31:04 81.83, 68.41 104.99 1.76 46
17 11/15/2025 12:21:16 -81.83,-123.79 74.96 11/15/2025 12:20:22 -81.83,-123.98 75.01 3.02 54
18 11/15/2025 13:10:43 81.83, 43.63 105.03 11/15/2025 13:09:42 81.83, 43.62 105.00 0.56 61



Historial Predications of SNOs between LANDSAT-8 and TERRA
